Location: Unspecified
(43.4000°N, 0.0000°E)
Time: 23:27:31
(UTC+00:00)

NOAA 19 - Pass Details

Date: 30 August 2019
Orbit: 840 x 862 km, 99.2° (Epoch: 18 October)

Event Time Altitude Azimuth Distance (km) Brightness Sun altitude
Rises 04:23:31 0° 28° (NNE) 3,418 9.3 -10.8°
Reaches altitude 10° 04:26:27 10° 43° (NE) 2,474 8.8 -10.3°
Maximum altitude 04:30:38 22° 93° (E) 1,763 7.8 -9.6°
Drops below altitude 10° 04:34:47 10° 143° (SE) 2,454 7.8 -8.9°
Sets 04:37:40 0° 158° (SSE) 3,382 8.4 -8.4°
